Tracking 32941 objects as of 15-Jan-2026
HD Live streaming from Space Station
objects crossing your sky now

STARLINK-33769

Track STARLINK-33769 now!
10-day predictions
STARLINK-33769 is classified as:


NORAD ID: 63773
Int'l Code: 2025-089X
Perigee: 489.9 km
Apogee: 490.4 km
Inclination: 43.0 °
Period: 94.3 minutes
Semi major axis: 6861 km
RCS: Unknown
Launch date: April 29, 2025
Source: United States (US)
Launch site: AIR FORCE EASTERN TEST RANGE (AFETR)
Your satellite tracking list
Your tracking list is empty




NASA's NSSDC Master Catalog

Two Line Element Set (TLE):
1 63773U 25089X   26014.96137641  .00017505  00000-0  64382-3 0  9994
2 63773  43.0031 348.3915 0000356 350.2499   9.8346 15.27595645 40731
Source of the keplerian elements: AFSPC